Weather History for Galliano, LA

Change the Weather History Date:

Wednesday, February 13, 2013

  Actual Average (KAXO) Record (KAXO)
Temperature  
Mean Temperature 58 °F -  
Max Temperature 66 °F 60 °F 71 °F (2007)
Min Temperature 50 °F 56 °F 37 °F (2014)
Degree Days  
Heating Degree Days 7    
Growing Degree Days 8 (Base 50)    
Moisture  
Dew Point 50 °F    
Average Humidity 89    
Maximum Humidity 100    
Minimum Humidity 76    
Precipitation  
Precipitation 0.00 in - - ()
Sea Level Pressure  
Sea Level Pressure 29.98 in    
Wind  
Wind Speed 8 mph (WNW)    
Max Wind Speed 15 mph    
Max Gust Speed 21 mph    
Visibility 9 miles    
Events Rain    
Averages and records for this station are not official NWS values.
T = Trace of Precipitation, MM = Missing Value Source: NWS Daily Summary

Daily Weather History Graph

Daily Weather History Graph

Search for Another Location

Airport:

Trip Planner

Search our weather history database for the weather conditions in past years. The results will help you decide how hot, cold, wet, or windy it might be!

Date:

Astronomy

Feb. 13, 2013 Rise Set
Actual Time 6:41 AM CST 5:49 PM CST
Civil Twilight 6:17 AM CST 6:13 PM CST
Nautical Twilight 5:49 AM CST 6:41 PM CST
Astronomical Twilight 5:21 AM CST 7:09 PM CST
Moon 8:32 AM CST (2/13) 9:28 PM CST (2/13)
Length of Visible Light 11h 56m
Length of Day
11h 07m
Waxing Crescent, 14% of the Moon is Illuminated
Feb 13
Waxing Crescent
Feb 17
First Quarter
Feb 25
Full
Mar 4
Last Quarter
Mar 11
New

Hourly Weather History & Observations

Time (CST) Temp. Dew Point Humidity Pressure Visibility Wind Dir Wind Speed Gust Speed Precip Events Conditions
12:15 AM 62.6 °F 60.8 °F 94% 29.83 in 7.0 mi West 10.4 mph - N/A   Clear
12:35 AM 66.2 °F 62.6 °F 88% 29.85 in 10.0 mi West 9.2 mph - N/A   Clear
12:55 AM 64.4 °F 60.8 °F 88% 29.86 in 10.0 mi West 9.2 mph - N/A   Scattered Clouds
1:15 AM 64.4 °F 60.8 °F 88% 29.88 in 10.0 mi West 8.1 mph - N/A   Scattered Clouds
1:35 AM 62.6 °F 59.0 °F 88% 29.88 in 10.0 mi West 9.2 mph - N/A   Clear
1:55 AM 60.8 °F 55.4 °F 82% 29.89 in 10.0 mi West 10.4 mph - N/A   Clear
2:15 AM 59.0 °F 55.4 °F 88% 29.89 in 10.0 mi West 6.9 mph - N/A   Clear
2:35 AM 59.0 °F 55.4 °F 88% 29.89 in 10.0 mi West 4.6 mph - N/A   Clear
2:55 AM 57.2 °F 53.6 °F 88% 29.90 in 10.0 mi WNW 4.6 mph - N/A   Clear
3:15 AM 55.4 °F 53.6 °F 94% 29.92 in 10.0 mi West 5.8 mph - N/A   Clear
3:35 AM 55.4 °F 53.6 °F 94% 29.91 in 10.0 mi West 5.8 mph - N/A   Clear
3:55 AM 55.4 °F 51.8 °F 88% 29.92 in 10.0 mi WNW 5.8 mph - N/A   Clear
4:15 AM 55.4 °F 51.8 °F 88% 29.91 in 10.0 mi WNW 3.5 mph - N/A   Clear
4:35 AM 55.4 °F 51.8 °F 88% 29.92 in 10.0 mi WNW 4.6 mph - N/A   Clear
4:55 AM 53.6 °F 51.8 °F 94% 29.92 in 10.0 mi WNW 5.8 mph - N/A   Clear
5:15 AM 53.6 °F 51.8 °F 94% 29.93 in 10.0 mi WNW 6.9 mph - N/A   Clear
5:35 AM 53.6 °F 51.8 °F 94% 29.94 in 10.0 mi WNW 4.6 mph - N/A   Clear
5:55 AM 53.6 °F 51.8 °F 94% 29.95 in 10.0 mi West 3.5 mph - N/A   Clear
6:15 AM 53.6 °F 51.8 °F 94% 29.94 in 10.0 mi NW 6.9 mph - N/A   Unknown
6:35 AM 53.6 °F 51.8 °F 94% 29.94 in 10.0 mi NW 5.8 mph - N/A   Unknown
6:55 AM 53.6 °F 51.8 °F 94% 29.95 in 7.0 mi NW 4.6 mph - N/A   Unknown
7:15 AM 53.6 °F 51.8 °F 94% 29.94 in 7.0 mi NNW 6.9 mph - N/A   Unknown
7:35 AM 55.4 °F 51.8 °F 88% 29.94 in 10.0 mi North - - N/A   Unknown
7:55 AM 55.4 °F 51.8 °F 88% 29.96 in 10.0 mi NW 12.7 mph - N/A   Unknown
8:15 AM 55.4 °F 51.8 °F 88% 29.96 in 10.0 mi NW 15.0 mph - N/A   Scattered Clouds
8:35 AM 55.4 °F 51.8 °F 88% 29.96 in 10.0 mi WNW 15.0 mph - N/A   Scattered Clouds
8:55 AM 55.4 °F 51.8 °F 88% 29.99 in 10.0 mi NW 12.7 mph 16.1 mph N/A   Mostly Cloudy
9:15 AM 55.4 °F 51.8 °F 88% 29.99 in 10.0 mi NW 12.7 mph - N/A   Overcast
9:35 AM 55.4 °F 51.8 °F 88% 29.99 in 10.0 mi NW 11.5 mph - N/A   Mostly Cloudy
9:55 AM 55.4 °F 50.0 °F 82% 30.02 in 10.0 mi WNW 11.5 mph - N/A   Overcast
10:15 AM 55.4 °F 51.8 °F 88% 30.01 in 10.0 mi WNW 3.5 mph - N/A Rain Light Rain
10:35 AM 55.4 °F 51.8 °F 88% 30.03 in 10.0 mi West 6.9 mph - N/A Rain Light Rain
10:55 AM 55.4 °F 51.8 °F 88% 30.01 in 10.0 mi WNW 5.8 mph - N/A Rain Light Rain
11:15 AM 55.4 °F 51.8 °F 88% 30.02 in 10.0 mi WNW 5.8 mph - N/A Rain Light Rain
11:35 AM 57.2 °F 51.8 °F 82% 30.01 in 10.0 mi West 9.2 mph - N/A   Overcast
11:55 AM 55.4 °F 50.0 °F 82% 30.00 in 10.0 mi West 6.9 mph - N/A   Overcast
12:15 PM 55.4 °F 50.0 °F 82% 30.01 in 10.0 mi WNW 13.8 mph - N/A   Overcast
12:35 PM 53.6 °F 48.2 °F 82% 30.00 in 10.0 mi WNW 12.7 mph - N/A   Overcast
12:55 PM 53.6 °F 46.4 °F 77% 30.01 in 10.0 mi WNW 11.5 mph 20.7 mph N/A   Overcast
1:15 PM 51.8 °F 46.4 °F 82% 30.02 in 10.0 mi WNW 10.4 mph - N/A   Light Drizzle
1:35 PM 50.0 °F 46.4 °F 87% 30.01 in 7.0 mi WNW 6.9 mph - N/A Rain Rain
1:55 PM 50.0 °F 48.2 °F 94% 30.00 in 1.2 mi NW 6.9 mph - N/A   Unknown
2:15 PM 50.0 °F 48.2 °F 94% 29.99 in 3.0 mi NW 4.6 mph - N/A Rain Rain
2:35 PM 50.0 °F 48.2 °F 94% 30.02 in 3.0 mi West 6.9 mph - N/A Rain Heavy Rain
2:55 PM 50.0 °F 48.2 °F 94% 29.99 in 4.0 mi NW 6.9 mph - N/A Rain Rain
3:15 PM 50.0 °F 48.2 °F 94% 29.99 in 4.0 mi WNW 5.8 mph - N/A Rain Rain
3:35 PM 50.0 °F 50.0 °F 100% 30.00 in 4.0 mi WNW 5.8 mph - N/A Rain Rain
3:55 PM 50.0 °F 48.2 °F 94% 29.99 in 5.0 mi NNW 9.2 mph - N/A Rain Rain
4:15 PM 50.0 °F 48.2 °F 94% 30.00 in 10.0 mi NW 4.6 mph - N/A Rain Light Rain
4:35 PM 50.0 °F 46.4 °F 87% 30.00 in 10.0 mi NNW 8.1 mph - N/A Rain Light Rain
4:55 PM 50.0 °F 48.2 °F 94% 30.00 in 10.0 mi NNW 6.9 mph - N/A   Overcast
5:15 PM 50.0 °F 46.4 °F 87% 30.00 in 10.0 mi NNW 6.9 mph - N/A   Overcast
5:35 PM 50.0 °F 46.4 °F 87% 30.00 in 10.0 mi NNW 9.2 mph - N/A   Overcast
5:55 PM 50.0 °F 46.4 °F 87% 30.02 in 10.0 mi NW 4.6 mph - N/A   Overcast
6:15 PM 50.0 °F 46.4 °F 87% 30.01 in 10.0 mi NW 5.8 mph - N/A   Overcast
6:35 PM 50.0 °F 46.4 °F 87% 30.02 in 10.0 mi NW 4.6 mph - N/A   Overcast
6:55 PM 50.0 °F 46.4 °F 87% 30.03 in 10.0 mi NW 3.5 mph - N/A   Overcast
7:15 PM 50.0 °F 48.2 °F 94% 30.03 in 10.0 mi NW 3.5 mph - N/A   Overcast
7:35 PM 50.0 °F 48.2 °F 94% 30.04 in 10.0 mi WSW 3.5 mph - N/A   Overcast
7:55 PM 50.0 °F 48.2 °F 94% 30.05 in 10.0 mi West 3.5 mph - N/A   Overcast
8:15 PM 50.0 °F 48.2 °F 94% 30.05 in 10.0 mi WNW 3.5 mph - N/A   Overcast
8:35 PM 50.0 °F 48.2 °F 94% 30.05 in 10.0 mi WNW 3.5 mph - N/A   Overcast
8:55 PM 50.0 °F 46.4 °F 87% 30.05 in 10.0 mi NW 4.6 mph - N/A   Mostly Cloudy
9:15 PM 50.0 °F 46.4 °F 87% 30.06 in 10.0 mi WNW 4.6 mph - N/A   Overcast
9:35 PM 50.0 °F 46.4 °F 87% 30.07 in 10.0 mi WNW 4.6 mph - N/A   Overcast
9:55 PM 50.0 °F 46.4 °F 87% 30.07 in 10.0 mi WNW 3.5 mph - N/A   Mostly Cloudy
10:15 PM 50.0 °F 46.4 °F 87% 30.07 in 10.0 mi WNW 4.6 mph - N/A   Mostly Cloudy
10:35 PM 50.0 °F 46.4 °F 87% 30.07 in 10.0 mi North 8.1 mph - N/A   Scattered Clouds
10:55 PM 50.0 °F 44.6 °F 82% 30.06 in 10.0 mi NNW 8.1 mph - N/A   Clear
11:15 PM 51.8 °F 44.6 °F 76% 30.07 in 10.0 mi NNE 5.8 mph - N/A   Scattered Clouds
11:35 PM 50.0 °F 44.6 °F 82% 30.07 in 10.0 mi NNE 5.8 mph - N/A   Clear
11:55 PM 50.0 °F 44.6 °F 82% 30.07 in 10.0 mi NNE 5.8 mph - N/A   Clear